• Join FlightAware (Why Join?)
  • Login
  • US Flag 
04:56PM EST


 

Airport Tracker/Info


-or-


 

Live Flight TrackerFlight Track Log ✈ GJS3706 ✈ 11-May-2013 ✈ KORD - KBTV

Flight Track Log - Related Links

Times and Time Zones

All times are in EDT time to prevent confusion due to time zone crossing. See the GJS3706 flight status page for this flight to view local times or setup timezone preferences in your user account.

Time Position Orientation Groundspeed Altitude Reporting Facility
EDT Latitude Longitude Course Direction KTS MPH feet Rate Location/Type
09:06AM 42.0333 -87.9500 90° East 214 246 3,500  Level Chicago TRACON
09:07AM 42.0833 -87.8833 45° Northeast 254 292 6,300 2,663 Climbing Chicago TRACON
09:08AM 42.1232 -87.4698 63° Northeast  Level FlightAware Approximate
09:09AM 42.1760 -87.3220 66° East  Level FlightAware Approximate
09:09AM 42.1333 -87.6717 72° East 303 349 11,800  Level Chicago Center
09:10AM 42.2259 -87.1722 66° East  Level FlightAware Approximate
09:10AM 42.1625 -87.5508 72° East 328 377 13,700  Level Chicago Center
09:11AM 42.2667 -87.0276 90° East  Level FlightAware Approximate
09:11AM 42.1772 -87.4056 82° East 381 438 15,700  Level Chicago Center
09:12AM 42.1861 -87.2514 85° East 408 470 17,900 2,098 Climbing Chicago Center
09:13AM 42.1944 -87.0581 87° East 428 493 20,000 1,512 Climbing Chicago Center
09:14AM 42.2022 -86.8864 86° East 450 518 21,000 1,073 Climbing Chicago Center
09:15AM 42.2100 -86.7036 87° East 479 551 22,200 1,220 Climbing Chicago Center
09:16AM 42.2197 -86.5050 86° East 502 578 23,500 1,171 Climbing Chicago Center
09:17AM 42.2267 -86.3147 87° East 506 582 24,600 1,024 Climbing Chicago Center
09:18AM 42.2339 -86.1219 87° East 513 590 25,600 927 Climbing Chicago Center
09:19AM 42.2406 -85.9422 87° East 521 600 26,500 1,073 Climbing Chicago Center
09:20AM 42.2494 -85.7058 87° East 528 608 27,800 1,220 Climbing Chicago Center
09:21AM 42.2561 -85.5081 87° East 532 612 29,000 1,150 Climbing Chicago Center
09:22AM 42.2650 -85.3117 86° East 540 621 30,100 1,068 Climbing Cleveland Center
09:23AM 42.2708 -85.1156 88° East 533 613 31,100 1,000 Climbing Cleveland Center
09:24AM 42.2783 -84.9194 87° East 527 606 32,100 1,000 Climbing Cleveland Center
09:25AM 42.2817 -84.7175 89° East 532 612 33,100 1,000 Climbing Cleveland Center
09:26AM 42.2814 -84.5436 90° East 532 612 34,100 1,000 Climbing Cleveland Center
09:27AM 42.3028 -84.3483 82° East 527 606 35,100 1,000 Climbing Cleveland Center
09:28AM 42.3294 -84.1589 79° East 527 606 36,100 950 Climbing Cleveland Center
09:29AM 42.3561 -83.9692 79° East 522 601 37,000 450 Climbing Cleveland Center
09:30AM 42.3825 -83.7767 79° East 517 595 37,000  Level Cleveland Center
09:31AM 42.4092 -83.5642 80° East 523 602 37,000  Level Cleveland Center
09:32AM 42.4139 -83.3731 88° East 516 594 37,000  Level Cleveland Center
09:33AM 42.4228 -83.1739 86° East 516 594 37,000  Level Cleveland Center
09:34AM 42.4289 -82.9769 88° East 516 594 37,000  Level Cleveland Center
09:35AM 42.4350 -82.7803 88° East 516 594 37,000  Level Cleveland Center
09:36AM 42.4408 -82.5836 88° East 516 594 37,000  Level Cleveland Center
09:37AM 42.4461 -82.3839 88° East 516 594 37,000  Level Cleveland Center
09:38AM 42.4511 -82.1872 88° East 516 594 37,000  Level Cleveland Center
09:39AM 42.4558 -81.9903 88° East 516 594 37,000  Level Cleveland Center
09:40AM 42.4600 -81.7933 88° East 522 601 37,000  Level Cleveland Center
09:41AM 42.4661 -81.6019 87° East 516 594 37,000  Level Cleveland Center
09:42AM 42.4697 -81.4078 88° East 516 594 37,000  Level Cleveland Center
09:43AM 42.4731 -81.2081 89° East 516 594 37,000  Level Cleveland Center
09:44AM 42.4781 -81.0194 88° East 516 594 37,000  Level Cleveland Center
09:45AM 42.4808 -80.8253 89° East 511 588 37,000  Level Cleveland Center
09:46AM 42.4831 -80.6283 89° East 519 597 37,000  Level Cleveland Center
09:47AM 42.4872 -80.4394 88° East 505 581 37,000  Level Cleveland Center
09:48AM 42.4867 -80.2425 90° East 505 581 37,000  Level Cleveland Center
09:49AM 42.4883 -80.0736 89° East 505 581 37,000  Level Cleveland Center
09:50AM 42.4914 -79.8819 89° East 505 581 37,000  Level Cleveland Center
09:51AM 42.4922 -79.6906 90° East 505 581 37,000  Level Cleveland Center
09:52AM 42.4928 -79.4992 90° East 505 581 37,000 350 Level Cleveland Center
09:53AM 42.5136 -79.3044 82° East 510 587 37,700 900 Climbing Cleveland Center
09:54AM 42.5761 -79.1339 63° Northeast 502 578 38,800 650 Climbing Cleveland Center
09:55AM 42.6406 -78.9631 63° Northeast 502 578 39,000 100 Climbing Cleveland Center
09:56AM 42.7089 -78.7889 62° Northeast 502 578 39,000  Level Cleveland Center
09:57AM 42.7728 -78.6147 63° Northeast 509 586 39,000  Level Cleveland Center
09:58AM 42.8386 -78.4428 62° Northeast 514 592 39,000  Level Cleveland Center
09:59AM 42.9017 -78.2647 64° Northeast 514 592 39,000  Level Cleveland Center
10:00AM 42.9711 -78.0919 61° Northeast 514 592 39,000  Level Cleveland Center
10:01AM 43.0339 -77.9161 64° Northeast 519 597 39,000  Level Cleveland Center
10:02AM 43.1003 -77.7342 63° Northeast 519 597 39,000  Level Cleveland Center
10:03AM 43.1706 -77.5400 64° Northeast 519 597 39,000  Level Cleveland Center
10:06AM 43.3239 -77.1131 64° Northeast 524 603 39,000  Level Boston Center
10:07AM 43.3897 -76.9294 64° Northeast 524 603 39,000  Level Boston Center
10:08AM 43.4531 -76.7481 64° Northeast 524 603 39,000  Level Boston Center
10:09AM 43.5200 -76.5667 63° Northeast 529 609 39,000  Level Boston Center
10:10AM 43.5831 -76.3817 65° Northeast 529 609 39,000  Level Boston Center
10:11AM 43.6453 -76.1992 65° Northeast 524 603 39,000  Level Boston Center
10:12AM 43.7072 -76.0219 64° Northeast 518 596 39,000 -950 Level Boston Center
10:13AM 43.7692 -75.8386 65° Northeast 518 596 37,100 -2,150 Descending Boston Center
10:14AM 43.8283 -75.6664 64° Northeast 508 585 34,700 -2,350 Descending Boston Center
10:15AM 43.8850 -75.4994 65° Northeast 489 563 32,400 -2,300 Descending Boston Center
10:16AM 43.9372 -75.3350 66° East 472 543 30,100 -2,250 Descending Boston Center
10:17AM 43.9892 -75.1786 65° Northeast 460 529 27,900 -2,100 Descending Boston Center
10:18AM 44.0406 -75.0192 66° East 453 521 25,900 -2,000 Descending Boston Center
10:19AM 44.0919 -74.8653 65° Northeast 453 521 23,900 -2,050 Descending Boston Center
10:20AM 44.1433 -74.6997 67° East 440 506 21,800 -2,050 Descending Boston Center
10:21AM 44.1897 -74.5536 66° East 421 484 19,800 -2,150 Descending Boston Center
10:22AM 44.2383 -74.4106 65° Northeast 411 473 17,500 -2,150 Descending Boston Center
10:23AM 44.2822 -74.2669 67° East 406 467 15,500 -2,000 Descending Boston Center
10:24AM 44.3261 -74.1292 66° East 394 453 13,500 -2,000 Descending Boston Center
10:25AM 44.3653 -74.0025 67° East 376 433 11,500 -1,250 Descending Boston Center
10:26AM 44.4086 -73.8814 63° Northeast 361 415 11,000 -600 Descending Boston Center
10:27AM 44.4642 -73.7694 55° Northeast 347 399 10,300 -550 Descending Boston Center
10:28AM 44.5111 -73.6569 60° Northeast 342 394 9,900 -1,150 Descending Boston Center
10:29AM 44.5456 -73.5439 67° East 322 371 8,000 -1,550 Descending Boston Center
10:30AM 44.5819 -73.4397 64° Northeast 309 356 6,800 -1,850 Descending Boston Center
10:31AM 44.6097 -73.3528 66° East 261 300 4,300 -2,300 Descending Boston Center
10:32AM 44.5706 -73.3056 139° Southeast 165 190 2,200 -2,100 Descending Boston Center